Volver al catálogo

FENGYUN 1C DEB

ActivoSSO
NORAD 30731·DEBRIS·🇨🇳 China

Lanzado May 10, 1999 desde Taiyuan Satellite Launch Center

Loading…

Próximos Pases (próximas 24 horas)

TLE

ActualizadoSource: Space-Track

Época: Sep 14, 2026, 05:06 UTC

1 30731U 99025ASR 26257.21285705  .00003887  00000-0  11225-2 0  9990
2 30731  98.8532 352.5801 0014942 148.8013 242.0945 14.45134993 13250

Sigue FENGYUN 1C DEB en tiempo real con AllMySat

Download on the App Store